ATLAS 5 CENTAUR DEB, 49342

Orbit data source: Space-Track

ATLAS 5 CENTAUR DEB, 49342 is space debris in HEO originally from a launch on Wed, 17 Oct 2018 UTC launched from the Air Force Eastern Test Range (AFETR). Debris objects in space refer to the collection of defunct objects orbiting the Earth. Examples of debris include non-operational satellites, rocket bodies, and fragments generated from explosions, collisions, or faulty payload assembly.

Loading next visibility...
Identifier
49342, 2018-079ET
Orbit
HEO
Country
Flag of USUS
Related business
Flag of USUnited Launch Alliance/Lockheed Martin (US)
Manufacturer
ULA Decatur
Mission
Spacecraft
Bus & Motor
Unknown
Mass
Unknown
Launch date (UTC)
2018-10-17 (7 years ago)
Launch vehicle
Unknown
Launch site
Air Force Eastern Test Range (AFETR)
Object type
Payload
Rocket body
Debris
Shape & HBR
Unknown shape, 1.1 m
Radar Cross Section
RCS unknown

Expand to show TLE details & history
Last TLE update: 8 months ago

TLE from 8 months ago
0 ATLAS 5 CENTAUR DEB
1 49342U 18079ET  25037.60037258 -.00000203  00000-0  00000+0 0  9990
2 49342  12.7845  70.0449 4759530 250.3643  53.4733  1.84607492 23215
Epoch: 2025-02-06T14:24Z
TLE epoch observation values (Epoch: 2025-02-06T14:24:32.190Z)
Latitude
-0.00001°
Longitude
77.02025°
Altitude
19,474.066 km
Speed
4.079 km/s
True Right ascension
04h 40m 30s
True Declination
0° 00' 00"
Sunlit
Object was in daylight at epoch
Visualization orbit readout
Latitude
Unknown
Longitude
Unknown
Altitude
Unknown
Speed
Unknown
Apparent Right ascension
Unknown
Apparent Declination
Unknown
Sunlit
N/A
Visualization observer readout
Local Sidereal Time
11:40:51
Azimuth
Unknown
Elevation
Unknown
Doppler factor
Unknown
Orbital elements
Apogee altitude
35,054.396 km
Perigee altitude
8,332.761 km
Semi-major axis
28,071.716 km
Eccentricity
0.47595
Inclination
12.7845°
RAAN
70.0449°
Arg. of periapsis
250.3643°
True anomaly
109.58375°
Mean anomaly
53.4733°
Eccentric anomaly
80.35818°
Mean motion
0.46147 °/min
Orbital period
780.12 mins
BSTAR
0
Loading maneuver chart data...
Computing Atmospheric mass density...

Documentation

Showing up to 5 results
|